Location: Unspecified
(51.5147°N, 7.4673°E)
Time: 07:28:05
(UTC+01:00)

Transit 2A - All Passes

Search period start: 18 February 2026 00:00
Search period end: 28 February 2026 00:00
Orbit: 589 x 955 km, 66.7° (Epoch: 17 February)

Date Brightness Start Highest point End Pass type
(mag) Time Alt. Az. Time Alt. Az. Time Alt. Az.
18 Feb - 12:32:00 10° S 12:37:39 39° ESE 12:43:26 10° NE daylight
18 Feb - 14:14:25 10° SW 14:20:36 59° NW 14:26:53 10° NE daylight
18 Feb - 15:59:51 10° WNW 16:05:00 25° NNW 16:10:05 10° NNE daylight
18 Feb - 17:45:44 10° NW 17:50:14 20° N 17:54:37 10° NE daylight
18 Feb - 19:29:47 10° NNW 19:35:17 31° NNE 19:40:27 10° E visible
18 Feb - 21:13:00 10° NW 21:19:10 88° SW 21:24:47 10° SE visible
18 Feb - 22:57:16 10° WNW 23:01:23 20° WSW 23:05:17 10° SSW visible
19 Feb - 11:56:21 10° SSE 12:01:30 28° ESE 12:06:46 10° NE daylight
19 Feb - 13:37:54 10° SW 13:44:08 76° NW 13:50:31 10° NE daylight
19 Feb - 15:22:50 10° W 15:28:15 29° NNW 15:33:38 10° NNE daylight
19 Feb - 17:08:55 10° NW 17:13:23 20° N 17:17:46 10° NE daylight
19 Feb - 18:53:20 10° NNW 18:58:34 27° NNE 19:03:32 10° E visible
19 Feb - 20:36:36 10° NW 20:42:46 71° NE 20:48:22 10° SE visible
19 Feb - 22:20:24 10° NW 22:25:22 28° WSW 22:29:57 10° SSW visible
20 Feb - 11:21:02 10° SSE 11:25:26 21° ESE 11:29:55 10° ENE daylight
20 Feb - 13:01:31 10° SSW 13:07:45 84° SE 13:14:07 10° NE daylight
20 Feb - 14:45:52 10° W 14:51:33 34° NNW 14:57:15 10° NNE daylight
20 Feb - 16:31:59 10° NW 16:36:32 20° N 16:41:00 10° NE daylight
20 Feb - 18:16:52 10° NNW 18:21:49 24° NNE 18:26:32 10° ENE visible
20 Feb - 20:00:13 10° NW 20:06:17 55° NE 20:11:50 10° ESE visible
20 Feb - 21:43:43 10° NW 21:49:14 38° WSW 21:54:18 10° S visible
21 Feb - 10:46:16 10° SE 10:49:26 14° ESE 10:52:38 10° ENE daylight
21 Feb - 12:25:17 10° SSW 12:31:25 64° ESE 12:37:41 10° NE daylight
21 Feb - 14:09:01 10° WSW 14:14:56 41° NW 14:20:52 10° NNE daylight
21 Feb - 15:54:59 10° WNW 15:59:43 21° NNW 16:04:21 10° NE daylight
21 Feb - 17:40:18 10° NW 17:45:01 22° NNE 17:49:33 10° ENE daylight
21 Feb - 19:23:51 10° NNW 19:29:44 43° NE 19:35:10 10° ESE visible
21 Feb - 21:07:10 10° NW 21:13:02 53° WSW 21:18:23 10° SSE visible
22 Feb - 11:49:14 10° S 11:55:10 48° ESE 12:01:12 10° NE daylight
22 Feb - 13:32:15 10° WSW 13:38:21 51° NW 13:44:30 10° NE daylight
22 Feb - 15:17:56 10° WNW 15:22:54 23° NNW 15:27:47 10° NE daylight
22 Feb - 17:03:39 10° NW 17:08:11 20° N 17:12:34 10° NE daylight
22 Feb - 18:47:28 10° NNW 18:53:07 35° NNE 18:58:23 10° E visible
22 Feb - 20:30:42 10° NW 20:36:46 73° SW 20:42:16 10° SSE visible
22 Feb - 22:15:33 10° WNW 22:18:44 15° WSW 22:21:46 10° SW visible
23 Feb - 11:13:26 10° S 11:18:58 35° ESE 11:24:38 10° NE daylight
23 Feb - 12:55:37 10° SW 13:01:51 64° NW 13:08:08 10° NE daylight
23 Feb - 14:40:54 10° W 14:46:08 26° NNW 14:51:18 10° NNE daylight
23 Feb - 16:26:53 10° NW 16:31:20 20° N 16:35:40 10° NE daylight
23 Feb - 18:11:03 10° NNW 18:16:26 30° NNE 18:21:29 10° E daylight
23 Feb - 19:54:17 10° NW 20:00:25 85° NE 20:05:59 10° SE visible
23 Feb - 21:38:23 10° WNW 21:42:44 22° WSW 21:46:49 10° SSW visible
24 Feb - 10:37:52 10° SSE 10:42:51 26° ESE 10:47:55 10° NE daylight
24 Feb - 12:19:07 10° SW 12:25:24 82° NW 12:31:46 10° NE daylight
24 Feb - 14:03:53 10° W 14:09:25 30° NNW 14:14:52 10° NNE daylight
24 Feb - 15:50:02 10° NW 15:54:30 20° N 15:58:50 10° NE daylight
24 Feb - 17:34:36 10° NNW 17:39:43 26° NNE 17:44:31 10° ENE daylight
24 Feb - 19:17:53 10° NW 19:23:59 65° NE 19:29:32 10° SE visible
24 Feb - 21:01:35 10° NW 21:06:40 30° WSW 21:11:23 10° S visible
25 Feb - 10:02:42 10° SE 10:06:47 19° ESE 10:10:57 10° ENE daylight
25 Feb - 11:42:46 10° SSW 11:49:01 78° SE 11:55:22 10° NE daylight
25 Feb - 13:26:58 10° W 13:32:44 36° NNW 13:38:28 10° NNE daylight
25 Feb - 15:13:04 10° NW 15:17:39 20° N 15:22:07 10° NE daylight
25 Feb - 16:58:06 10° NW 17:02:56 23° NNE 17:07:32 10° ENE daylight
25 Feb - 18:41:30 10° NW 18:47:29 50° NE 18:52:56 10° ESE visible
25 Feb - 20:24:56 10° NW 20:30:32 42° WSW 20:35:38 10° S visible
26 Feb - 09:28:13 10° SE 09:30:49 13° E 09:33:26 10° ENE daylight
26 Feb - 11:06:36 10° SSW 11:12:43 59° ESE 11:18:54 10° NE daylight
26 Feb - 12:50:07 10° WSW 12:56:07 44° NW 13:02:06 10° NNE daylight
26 Feb - 14:36:02 10° WNW 14:40:49 22° NNW 14:45:30 10° NE daylight
26 Feb - 16:21:30 10° NW 16:26:07 21° NNE 16:30:33 10° ENE daylight
26 Feb - 18:05:07 10° NNW 18:10:54 40° NE 18:16:13 10° ESE daylight
26 Feb - 19:48:24 10° NW 19:54:19 58° WSW 19:59:39 10° SSE visible
26 Feb - 21:34:25 10° W 21:36:02 11° W 21:37:35 10° WSW visible
27 Feb - 10:30:38 10° S 10:36:28 43° ESE 10:42:24 10° NE daylight
27 Feb - 12:13:23 10° WSW 12:19:34 54° NW 12:25:44 10° NE daylight
27 Feb - 13:58:59 10° WNW 14:04:01 24° NNW 14:08:58 10° NNE daylight
27 Feb - 15:44:48 10° NW 15:49:17 20° N 15:53:35 10° NE daylight
27 Feb - 17:28:44 10° NNW 17:34:16 33° NNE 17:39:24 10° E daylight
27 Feb - 19:11:57 10° NW 19:18:01 80° SW 19:23:29 10° SSE visible
27 Feb - 20:56:33 10° WNW 21:00:05 17° WSW 21:03:26 10° SW visible
